TOP > 外国特許検索

外国特許検索

Display results per page Option
Patent state
Country

Clear

Hits 4662 results

No. Application number
Gazette No
Country
Title
Release Date
Update Date
Information Provider
301 2007JP061173 WO 2007/142133 世界知的所有権機関(WIPO) DISCHARGE PREVENTION DEVICE 2011/03/07 2011/03/22 九州工業大学
302 2008JP051318 WO 2008/120488 世界知的所有権機関(WIPO) ELECTRONIC CIRCUIT DEVICE 実績あり 2011/03/07 2011/03/22 九州工業大学
303 2008JP054308 WO 2008/126548 世界知的所有権機関(WIPO) METHOD FOR EVALUATING SRAM MEMORY CELL AND MEDIUM RECORDING EVALUATION PROGRAM OF SRAM MEMORY CELL COMPUTER READABLY 実績あり 2011/03/07 2011/03/22 九州工業大学
304 2005JP011026 WO 2005/125013 世界知的所有権機関(WIPO) OPTICALLY RECONFIGURABLE GATE ARRAY WRITE STATE INSPECTION METHOD, WRITE STATE INSPECTION DEVICE, AND OPTICALLY RECONFIGURABLE GATE ARRAY 実績あり 2011/03/07 2011/05/25 九州工業大学
305 2005JP012541 WO 2006/016455 世界知的所有権機関(WIPO) EUROPIUM DIKETONE CHELATE COMPOUND AND FLUORESCENT MATERIAL USING SAME 実績あり 2011/03/08 2011/03/22 九州工業大学
306 2005JP014811 WO 2006/019043 世界知的所有権機関(WIPO) POROUS SHEET MEMBER FOR CELL CULTURE AND, UTILIZING THE SAME, BIOREACTOR AND CULTURING METHOD 2011/03/08 2011/03/22 九州工業大学
307 2007JP054100 WO 2007/113964 世界知的所有権機関(WIPO) MULTI-STAGE LOGIC RECONFIGURATION DEVICE AND RECONFIGURATION METHOD, LOGIC CIRCUIT CORRECTION DEVICE, AND RECONFIGURABLE MULTI-STAGE LOGIC CIRCUIT 実績あり 2011/03/08 2011/03/23 九州工業大学
308 2007JP056497 WO 2007/119539 世界知的所有権機関(WIPO) ADDRESS GENERATOR 実績あり 2011/03/08 2011/03/23 九州工業大学
309 2007JP056498 WO 2007/119540 世界知的所有権機関(WIPO) ASSOCIATED MEMORY 実績あり 2011/03/08 2011/03/24 九州工業大学
310 2007JP065085 WO 2008/026413 世界知的所有権機関(WIPO) RECONFIGURATION CONTROLLER FOR OPTICALLY RECONFIGURABLE GATE ARRAY AND ITS METHOD 実績あり 2011/03/08 2011/03/24 九州工業大学
311 2009JP000639 WO 2009/125535 世界知的所有権機関(WIPO) NEEDLE PROBE FOR COOLING OPERATION AND COOLING OPERATION SYSTEM 実績あり 2011/03/08 2011/03/24 九州工業大学
312 2009JP060237 WO 2009/157284 世界知的所有権機関(WIPO) ORGANIC FIELD EFFECT TRANSISTOR 2011/03/08 2011/03/24 九州工業大学
313 2006JP320435 WO 2007/063647 世界知的所有権機関(WIPO) PARTIAL DISCHARGE CHARGE QUANTITY MEASURING METHOD AND DEVICE 実績あり 2011/03/09 2011/03/24 九州工業大学
314 2005JP015277 WO 2006/030608 世界知的所有権機関(WIPO) TERAHERTZ ELECTROMAGNETIC WAVE RADIATION ELEMENT AND ITS MANUFACTURING METHOD 実績あり 2011/03/09 2011/03/24 九州工業大学
315 2005JP022577 WO 2006/067974 世界知的所有権機関(WIPO) NON-CONTACT CONVEY DEVICE BY SUPERCONDUCTING MAGNETIC LEVITATION 新技術説明会 2011/03/09 2011/03/24 九州工業大学
316 2009JP053157 WO 2010/001632 世界知的所有権機関(WIPO) MICRO-RNA ASSOCIATED WITH RHEUMATOID ARTHRITIS 2011/03/09 2011/03/18 神戸大学
317 2007JP053155 WO 2008/029521 世界知的所有権機関(WIPO) THERMOACOUSTIC DEVICE 2011/03/10 2011/03/22 同志社大学
318 2006JP304961 WO 2006/103910 世界知的所有権機関(WIPO) NONDESTRUCTIVE INSPECTION METHOD AND DEVICE 新技術説明会 2011/03/10 2011/03/24 九州工業大学
319 2006JP313691 WO 2007/013287 世界知的所有権機関(WIPO) VALVELESS MICROPUMP 実績あり 2011/03/10 2011/03/24 九州工業大学
320 2006JP323862 WO 2007/063924 世界知的所有権機関(WIPO) CONVERSION DEVICE, CONVERSION METHOD, PROGRAM, AND RECORDING MEDIUM 実績あり 2011/03/10 2011/05/25 九州工業大学
321 2007JP056149 WO 2007/111288 世界知的所有権機関(WIPO) GENERATING DEVICE, GENERATING METHOD, PROGRAM AND RECORDING MEDIUM 実績あり 2011/03/10 2011/05/25 九州工業大学
322 2008JP061548 WO 2009/001858 世界知的所有権機関(WIPO) WEAR FOR ELECTRICALLY STIMULATING MUSCLES 新技術説明会 実績あり 2011/03/10 2011/03/24 九州工業大学
323 2009JP006016 WO 2010/055649 世界知的所有権機関(WIPO) DEVICE FOR SUPPRESSING SUSTAINED DISCHARGE ON SOLAR BATTERY ARRAY 新技術説明会 2011/03/10 2011/03/24 九州工業大学
324 2009JP063586 WO 2010/021233 世界知的所有権機関(WIPO) GENERATING DEVICE, GENERATING METHOD, AND PROGRAM 実績あり 2011/03/10 2011/03/24 九州工業大学
325 2009JP067325 WO 2010/047219 世界知的所有権機関(WIPO) GENERATION DEVICE, DETERMINATION METHOD, GENERATION METHOD, AND PROGRAM 実績あり 2011/03/10 2011/03/24 九州工業大学
326 2010JP050924 WO 2010/098160 世界知的所有権機関(WIPO) OBJECT MOTION INFERRING DEVICE, OBJECT MOTION INFERRING METHOD, PROGRAM, AND RECORDING MEDIUM 2011/03/10 2011/03/24 九州工業大学
327 2010JP000501 WO 2010/087178 世界知的所有権機関(WIPO) WIND TURBINE GENERATOR 新技術説明会 実績あり 2011/03/14 2011/03/24 九州工業大学
328 2007JP065667 WO 2008/018570 世界知的所有権機関(WIPO) ANTIREFLECTION STRUCTURE, PROCESS FOR PRODUCING THE SAME AND PROCESS FOR PRODUCING OPTICAL MEMBER 2011/03/14 2011/05/23 東京理科大学
329 2008JP054074 WO 2008/108438 世界知的所有権機関(WIPO) SILANE COUPLING AGENTS WITH HEAT RESISTANCE, DURABILITY, RELEASABILITY, AND ANTIFOULING PROPERTY AND PROCESS FOR PRODUCING THESE COMPOUNDS 2011/03/14 2011/03/18 東京理科大学
330 2007JP065086 WO 2008/026414 世界知的所有権機関(WIPO) IMAGE RECOGNITION METHOD, IMAGE RECOGNITION DEVICE, AND IMAGE RECOGNITION PROGRAM 新技術説明会 2011/03/14 2011/03/22 大阪府立大学
331 2007JP073761 WO 2008/069341 世界知的所有権機関(WIPO) SHIP BUOYANCY CONTROL SYSTEM 2011/03/14 2011/03/22 横浜国立大学
332 2008JP054918 WO 2008/120570 世界知的所有権機関(WIPO) CULTURE MEDIUM FOR PRODUCTION OF PROTEIN OR PROLIFERATION OF VIRUS 2011/03/14 2011/03/22 岡山大学
333 2008JP055286 WO 2008/117753 世界知的所有権機関(WIPO) METHOD FOR IMAGING BLOOD VESSEL, SYSTEM FOR IMAGING BLOOD VESSEL AND PROGRAM FOR IMAGING BLOOD VESSEL 2011/03/14 2011/03/22 岐阜大学
334 2008JP051899 WO 2008/093881 世界知的所有権機関(WIPO) METHOD FOR SYNTHESIS OF NITROXYL RADICAL 2011/03/14 2011/03/22 九州大学
335 2008JP056826 WO 2008/123614 世界知的所有権機関(WIPO) METHOD FOR PRODUCTION OF THREE-DIMENSIONAL STRUCTURE OF CELLS 2011/03/14 2011/03/22 九州大学
336 2007JP065720 WO 2008/023582 世界知的所有権機関(WIPO) DEPSIPEPTIDE CONTAINING LACTIC ACID RESIDUE 新技術説明会 2011/03/14 2011/03/22 群馬大学
337 2007JP068970 WO 2008/038766 世界知的所有権機関(WIPO) FUNCTIONAL PEPTIDE HAVING ACTIVITY OF STIMULATING IMMUNE CELL 新技術説明会 2011/03/14 2011/03/22 群馬大学
338 2008JP055650 WO 2008/117813 世界知的所有権機関(WIPO) CHICKEN EMBRYONIC STEM CELL AND METHOD FOR EVALUATION THEREOF 2011/03/14 2011/03/22 広島大学
339 09794161 2311936 欧州特許庁(EPO) Novel microorganism and plant disease control agent using the microorganism 新技術説明会 2011/03/15 2015/07/23 山梨大学
340 2010JP069614 WO 2011/055751 世界知的所有権機関(WIPO) GAS SENSITIVE MATERIAL COMPRISING MICROCRYSTALLINE SELENIUM AND GAS SENSOR USING SAME 新技術説明会 2011/03/15 2011/05/23 岡山理科大学
341 2010JP069104 WO 2011/058881 世界知的所有権機関(WIPO) APPARATUS FOR PRODUCING ULTRAFINE LIQUID DROPLETS 2011/03/15 2011/08/01 岡山大学
342 2009JP065263 WO 2010/026965 世界知的所有権機関(WIPO) CELL CAPABLE OF REPLICATING NOVEL HCV REPLICON, CELL CAPABLE OF REPLICATING FULL-LENGTH HCV RNA, AND USE OF THOSE CELLS 2011/03/17 2011/03/22 岡山大学
343 2009JP056758 WO 2009/123243 世界知的所有権機関(WIPO) PLASMA GENERATING DEVICE AND METHOD 新技術説明会 2011/03/17 2011/03/22 琉球大学
344 2010JP053624 WO 2010/101239 世界知的所有権機関(WIPO) SOLAR LIGHT (HEAT) ABSORBING MATERIAL, AND HEAT ABSORBER/STORAGE MATERIAL AND SOLAR LIGHT (HEAT) ABSORBER/CONTROL MATERIAL EACH COMPRISING THE SOLAR LIGHT (HEAT) ABSORBING MATERIAL 2011/03/17 2011/03/22 琉球大学
345 2010JP062351 WO 2011/010695 世界知的所有権機関(WIPO) METHOD FOR INCREASING YIELD OF STAPLE FOOD CROP 2011/03/18 2011/03/18 静岡大学
346 2010JP068209 WO 2011046221 世界知的所有権機関(WIPO) INTERFERON-α MODULATOR 2011/03/18 2019/04/22 立命館大学
347 05710708 1724653 欧州特許庁(EPO) Control system of floating mobile body 2011/03/23 2016/09/30 立命館大学
348 2007JP059457 WO 2007/135850 世界知的所有権機関(WIPO) INFRARED ARRAY SENSOR 2011/03/23 2011/04/26 立命館大学
349 2009JP053291 WO 2010/097894 世界知的所有権機関(WIPO) BIOELECTRIC POTENTIAL ESTIMATING APPARATUS USING IMPEDANCE SWITCHING TYPE MULTIPOINT SURFACE ELECTRODE, AND METHOD THEREFOR 2011/03/23 2011/04/26 立命館大学
350 2010JP054892 WO 2010/107121 世界知的所有権機関(WIPO) NOVEL SOIL DIAGNOSIS METHOD 新技術説明会 2011/03/23 2011/04/26 立命館大学
351 2006JP308748 WO 2006/115271 世界知的所有権機関(WIPO) ORGANIC PHOTOCATALYST 2011/03/23 2011/04/21 弘前大学
352 2009JP069532 WO 2010/134225 世界知的所有権機関(WIPO) METHOD FOR DETECTION OF INFECTION BY PATHOGENIC NEISSERIA BACTERIA USING PARTIAL SUGAR CHAIN EPITOPE, AND VACCINE AGAINST THE BACTERIA 新技術説明会 2011/03/23 2011/04/21 鳥取大学
353 2010JP055292 WO 2010/110398 世界知的所有権機関(WIPO) RECONFIGURATION CONTROL APPARATUS FOR OPTICALLY RECONFIGURABLE GATE ARRAY AND INFORMATION READ APPARATUS FOR HOLOGRAM MEMORY 新技術説明会 2011/03/24 2011/04/22 静岡大学
354 2008JP002392 WO 2009/031290 世界知的所有権機関(WIPO) ACOUSTIC WAVE DEVICE 新技術説明会 2011/03/24 2011/04/22 静岡大学
355 2010JP059521 WO 2010/140679 世界知的所有権機関(WIPO) PORTABLE FLUORESCENCE MICROSCOPE DEVICE 新技術説明会 2011/03/24 2011/04/22 静岡大学
356 2008JP061429 WO 2009/001805 世界知的所有権機関(WIPO) NOVEL ARTIFICIAL N-LINKED SIALO-SUGAR CHAIN-CONTAINING POLYMER AND METHOD FOR PRODUCING THE SAME 2011/03/24 2011/04/22 静岡大学
357 2008JP054326 WO 2008/111566 世界知的所有権機関(WIPO) EXAMINATION VALUE PREDICTING DEVICE USING ELECTROPHORESIS WAVEFORM, PREDICTING METHOD, AND PREDICTING PROGRAM 2011/03/24 2011/03/24 高知大学
358 2007JP059554 WO 2007/126153 世界知的所有権機関(WIPO) METHOD FOR MANUFACTURING GAS DIFFUSION ELECTRODE, GAS DIFFUSION ELECTRODE, AND MEMBRANE ELECTRODE ASSEMBLY COMPRISING THE GAS DIFFUSION ELECTRODE 2011/03/24 2011/03/24 山梨大学
359 2007JP071961 WO 2008/059812 世界知的所有権機関(WIPO) OPTO-ACOUSTIC MEASUREMENT SYSTEM 新技術説明会 2011/03/24 2011/03/24 鹿児島大学
360 2006JP323504 WO 2007/108173 世界知的所有権機関(WIPO) BIOMOLECULAR ELEMENT, MULTILAYER MOLECULAR THIN FILM OF FATTY ACID AND LIPID TO BE SUPPORT FOR BIOSENSOR MOLECULE AND METHOD FOR PRODUCING THE SAME 2011/03/24 2011/05/24 秋田大学
361 2007JP061464 WO 2008/139638 世界知的所有権機関(WIPO) EXTRACTANT FOR RARE METAL OR PLATINUM-GROUP METAL AND METHOD OF EXTRACTING RARE METAL OR PLATINUM-GROUP METAL 新技術説明会 2011/03/24 2011/03/24 秋田大学
362 2008JP051457 WO 2008/093756 世界知的所有権機関(WIPO) BIOLOGICAL PREPARATION 2011/03/24 2011/03/24 新潟大学
363 2007JP060482 WO 2007/138939 世界知的所有権機関(WIPO) WAVE ACTIVATED POWER GENERATION SYSTEM AND WAVE ACTIVATED POWER GENERATION PLANT 2011/03/24 2011/05/24 神戸大学
364 2008JP000105 WO 2008/108054 世界知的所有権機関(WIPO) ULTRASONOGRAPH 新技術説明会 実績あり 2011/03/28 2011/04/27 山口TLO
365 2010JP066438 WO 2011/046007 世界知的所有権機関(WIPO) PROCESS FOR PREPARATION OF DIETHYLENETRIAMINEPENTAACETIC ACID DERIVATIVES, AND DIETHYLENETRIAMINEPENTAACETIC ACID DERIVATIVES 2011/03/28 2011/05/24 徳島大学
366 2007JP059108 WO 2007/126020 世界知的所有権機関(WIPO) COMPOUND HAVING ACTIVITY OF BLOCKING NMDA RECEPTOR CHANNEL, AND PHARMACEUTICAL AGENT USING THE SAME 2011/03/28 2011/03/28 千葉大学
367 2007JP061108 WO 2007/139192 世界知的所有権機関(WIPO) OPTICAL MEASURING DEVICE, OPTICAL MEASURING METHOD, AND STORAGE MEDIUM STORING OPTICAL MEASUREMENT PROGRAM 2011/03/28 2011/03/28 静岡大学
368 2007JP061633 WO 2007/142327 世界知的所有権機関(WIPO) CONVERTER CIRCUIT, ANALOG/DIGITAL CONVERTER, AND METHOD FOR GENERATING DIGITAL SIGNALS CORRESPONDING TO ANALOG SIGNALS 2011/03/28 2011/03/28 静岡大学
369 2007JP061635 WO 2007/142328 世界知的所有権機関(WIPO) ANALOG DIGITAL CONVERTER, A/D CONVERSION STAGE, METHOD FOR GENERATING DIGITAL SIGNAL CORRESPONDING TO ANALOG SIGNAL, AND METHOD FOR GENERATING SIGNAL INDICATING CONVERSION ERROR IN THE A/D CONVERSION STAGE 2011/03/28 2011/03/28 静岡大学
370 2007JP064986 WO 2008/016049 世界知的所有権機関(WIPO) A/D CONVERTER AND READING CIRCUIT 2011/03/28 2011/03/28 静岡大学
371 2007JP073215 WO 2008/069141 世界知的所有権機関(WIPO) SEMICONDUCTOR DISTANCE MEASURING ELEMENT AND SOLID-STATE IMAGING DEVICE 2011/03/28 2011/03/28 静岡大学
372 2007JP064047 WO 2008/007796 世界知的所有権機関(WIPO) CONTROLLED-RELEASE DRUG PREPARATION AND METHOD FOR PRODUCING THE SAME 2011/03/28 2011/03/28 筑波大学
373 2008JP053740 WO 2008/108324 世界知的所有権機関(WIPO) PROCESS FOR PRODUCING VESICLE, VESICLE OBTAINED BY THE PROCESS, AND PROCESS FOR PRODUCING FROZEN PARTICLE FOR USE IN VESICLE PRODUCTION 新技術説明会 2011/03/28 2011/03/28 筑波大学
374 2008JP050205 WO 2008/087888 世界知的所有権機関(WIPO) DEEP-DRAWING DEVICE 2011/03/28 2011/03/28 長岡技術科学大学
375 2007JP067428 WO 2008/029886 世界知的所有権機関(WIPO) KIT FOR DIAGNOSIS OF ALZHEIMER'S DISEASE, DIAGNOSTIC MARKER, AND METHOD FOR DETECTION OF INDICATOR FOR DISEASE CONDITION 新技術説明会 2011/03/28 2011/03/28 鳥取大学
376 2007JP065057 WO 2008/018338 世界知的所有権機関(WIPO) HARMONIC PROCESSING CIRCUIT AND AMPLIFYING CIRCUIT USING THE SAME 2011/03/28 2011/03/28 電気通信大学
377 2008JP054207 WO 2008/111530 世界知的所有権機関(WIPO) METHOD OF PREPARING DECELLULARIZED SOFT TISSUE, GRAFT AND CULTURE MATERIAL 2011/03/28 2011/03/28 東京医科歯科大学
378 2008JP056737 WO 2008/120816 世界知的所有権機関(WIPO) PROCESS FOR PRODUCING BILAYER MEMBRANE AND PLANAR BILAYER MEMBRANE 2011/03/28 2011/03/28 東京工業大学
379 2007JP053929 WO 2008/004356 世界知的所有権機関(WIPO) SPINNING SOLUTION COMPOSITION, PROCESS FOR PRODUCING REGENERATED SILK FIBER USING THE COMPOSITION, AND REGENERATED SILK FIBER PRODUCED BY THE PROCESS 2011/03/29 2011/03/29 東京農工大学
380 2007JP062053 WO 2007/145298 世界知的所有権機関(WIPO) METHOD OF, AND APPARATUS FOR, DETECTING OF ANY INTERACTION BETWEEN NUCLEIC ACID AND PROTEIN 2011/03/29 2011/05/24 東京農工大学
381 2007JP058885 WO 2007/125930 世界知的所有権機関(WIPO) CHEMICALLY CURABLE GLASS-IONOMER CEMENT 実績あり 2011/03/29 2011/03/29 徳島大学
382 2008JP000464 WO 2008/111293 世界知的所有権機関(WIPO) RARE-EARTH COMPLEX AND USE THEREOF 2011/03/29 2011/03/29 奈良先端科学技術大学院大学
383 2008JP051928 WO 2008/096779 世界知的所有権機関(WIPO) C<SB>70</SB>-CONTAINING LIPOSOME, METHOD FOR PRODUCING THE SAME, AND USE OF THE SAME 2011/03/29 2011/03/29 奈良先端科学技術大学院大学
384 2008JP055757 WO 2008/123315 世界知的所有権機関(WIPO) SIGNAL PROCESSING DEVICE 2011/03/29 2011/03/29 奈良先端科学技術大学院大学
385 2008JP050139 WO 2008/093517 世界知的所有権機関(WIPO) DEVICE FOR DISPLAYING ASSISTANCE INFORMATION FOR SURGICAL OPERATION, METHOD FOR DISPLAYING ASSISTANCE INFORMATION FOR SURGICAL OPERATION, AND PROGRAM FOR DISPLAYING ASSISTANCE INFORMATION FOR SURGICAL OPERATION 2011/03/29 2011/03/29 浜松医科大学
386 2007JP055567 WO 2007/119431 世界知的所有権機関(WIPO) NON-HEATING DETECTION METHOD FOR DERMATOPHYTE 2011/03/31 2011/04/21 福井大学
387 2007JP069502 WO 2008/047614 世界知的所有権機関(WIPO) METHOD AND DEVICE FOR PREDICTING THE SLIDING FRICTION OF ROAD SURFACE, AND PROGRAM THEREFOR 新技術説明会 2011/03/31 2011/05/23 福井大学
388 2007JP071765 WO 2008/056757 世界知的所有権機関(WIPO) THREE-DIMENSIONAL MODEL SEARCH METHOD, COMPUTER PROGRAM, AND THREE-DIMENSIONAL MODEL SEARCH SYSTEM 新技術説明会 2011/03/31 2011/04/21 豊橋技術科学大学(とよはしTLO)
389 2008JP053647 WO 2008/108297 世界知的所有権機関(WIPO) HOMOLOGOUS SEARCH SYSTEM 2011/03/31 2011/04/21 情報・システム研究機構 国立遺伝学研究所
390 2010JP072503 WO 2011/074586 世界知的所有権機関(WIPO) NOVEL MICROORGANISM CAPABLE OF PRODUCING OXIDE 2011/04/01 2011/08/01 岡山大学
391 2009JP005856 WO 2010/052904 世界知的所有権機関(WIPO) METHOD FOR PRODUCING NEURAL STEM CELLS 2011/04/05 2012/04/05 慶應義塾大学
392 2010JP000640 WO 2010/090007 世界知的所有権機関(WIPO) CULTURE METHOD OF EMBRYOID BODIES AND/OR NEURAL STEM CELLS DERIVED FROM HUMAN DIFFERENTIATED CELL-DERIVED PLURIPOTENT STEM CELLS 2011/04/05 2012/08/28 慶應義塾大学
393 2010JP003620 WO 2010/137348 世界知的所有権機関(WIPO) METHOD FOR SELECTING CLONE OF INDUCED PLURIPOTENT STEM CELLS 2011/04/05 2013/09/17 慶應義塾大学
394 2010JP058867 WO 2010/134638 世界知的所有権機関(WIPO) ANTIBACTERIAL MEDICAL EQUIPMENT AND METHOD FOR PRODUCING THE SAME 新技術説明会 2011/04/05 2011/04/05 慶應義塾大学
395 2008JP072732 WO 2009/096101 世界知的所有権機関(WIPO) METHOD FOR INTRODUCING FOREIGN GENE INTO EARLY EMBRYO OF PRIMATE ANIMAL, AND METHOD FOR PRODUCTION OF TRANSGENIC PRIMATE ANIMAL COMPRISING THE INTRODUCTION METHOD 新技術説明会 2011/04/05 2011/05/25 慶應義塾大学
396 2008JP073392 WO 2009/096126 世界知的所有権機関(WIPO) METHOD FOR PRODUCING ISOINDOLE AND ISOINDOLE PRODUCED BY THE METHOD FOR PRODUCING ISOINDOLE 新技術説明会 2011/04/05 2011/04/21 宇都宮大学
397 2009JP052814 WO 2009/104649 世界知的所有権機関(WIPO) SYNTHETIC GLYCOLIPID-CONTAINING LIPOSOMES 2011/04/05 2011/04/21 岐阜大学
398 2008JP063592 WO 2009/017124 世界知的所有権機関(WIPO) METHOD FOR PRODUCTION OF BIOFILM 新技術説明会 2011/04/06 2011/04/26 日大NUBIC
399 2008JP065680 WO 2009/028707 世界知的所有権機関(WIPO) INHIBITOR OF ISCHEMIC DISORDERS 2011/04/06 2011/04/22 福岡大学
400 2009JP052230 WO 2009101939 世界知的所有権機関(WIPO) NON-HUMAN MAMMAL MODEL OF EPILEPSY 2011/04/06 2019/04/22 福岡大学

(4/47 page)

PAGE TOP